KAITUO 1B
1 40912U 15049P   18065.80799769 +.00001071 +00000-0 +55124-4 0  9990
2 40912 097.4517 074.5952 0015985 014.4495 340.3460 15.18490149136123
TIANWANG 1C (TW-1C)
1 40926U 15051B   18066.47594911  .00006470  00000-0  12837-3 0  9995
2 40926  97.1962 109.3388 0008684 296.5837 170.6915 15.47320947137579
TIANWANG 1B (TW-1B)
1 40927U 15051C   18066.48195133  .00006461  00000-0  13353-3 0  9994
2 40927  97.2046 109.2325 0008687 309.2099 158.2205 15.46132366137499
TIANWANG 1A (TW-1A)
1 40928U 15051D   18066.55378836  .00002779  00000-0  76172-4 0  9993
2 40928  97.1965 102.5220 0011527 338.1460 176.7545 15.38080963137150
LAPAN A2
1 40931U 15052B   18065.66039446  .00000946  00000-0  42785-4 0  9997
2 40931   6.0029 161.1964 0014140 357.2115   2.7960 14.76569302131820
LQSAT
1 40958U 15057A   18066.40860306  .00000050  00000-0  15501-4 0  9993
2 40958  97.9492 141.7452 0017128 306.3605  53.6025 14.73019259129862
CHUBUSAT 2
1 41338U 16012B   18065.89890173 +.00000355 +00000-0 +21060-4 0  9990
2 41338 031.0023 243.5095 0013735 140.9402 219.2227 14.99929772112465
CHUBUSAT 3
1 41339U 16012C   18066.52439853  .00000330  00000-0  19034-4 0  9997
2 41339  31.0110 238.2807 0013596 154.4087 205.7231 15.00121429112549
OUFTI-1
1 41458U 16025C   18066.08173599  .00001682  00000-0  91079-4 0  9996
2 41458  98.1504 123.4341 0172645 129.8397 231.8181 15.04319682102087
E-STAR-2
1 41459U 16025D   18065.87164302 +.00000972 +00000-0 +54807-4 0  9994
2 41459 098.1500 123.0903 0173519 130.9125 230.7258 15.04072172102046
AAUSAT 4
1 41460U 16025E   18066.07627782  .00001969  00000-0  10542-3 0  9999
2 41460  98.1441 123.6575 0165130 127.0809 234.5653 15.05375855102124
NUSAT 1
1 41557U 16033B   18066.21633564  .00001223  00000-0  47362-4 0  9990
2 41557  97.4411 150.6124 0014676 152.5256 207.6762 15.28047728 98583
BEESAT 4
1 41619U 16040W   18066.16197351  .00001201  00000-0  55939-4 0  9995
2 41619  97.4277 130.6755 0010643 221.7370 138.3055 15.21796292 82573
PRATHAM
1 41783U 16059A   18066.43038524  .00000041  00000-0  17229-4 0  9994
2 41783  98.1308 129.5698 0034653  56.6218 303.8292 14.62904307 77088
ALSAT 1N
1 41789U 16059G   18066.40481737  .00000088  00000-0  25753-4 0  9997
2 41789  98.1313 130.5623 0029434  49.8248 310.5527 14.64131736 77129
NAYIF 1
1 42017U 17008BX  18065.94952481 +.00001296 +00000-0 +56328-4 0  9998
2 42017 097.4604 131.5742 0007141 032.8506 327.3173 15.24092010058492
LILACSAT-1
1 42725U 98067ME  18066.13796315  .00016224  00000-0  16974-3 0  9991
2 42725  51.6367 156.7491 0003906 214.4574 145.6168 15.64600295 44511
MAX VALIER SAT
1 42778U 17036P   18066.15602241  .00000803  00000-0  39171-4 0  9993
2 42778  97.4166 127.5074 0014274  70.7709 289.5070 15.21071385 38990
